TimeCST,TemperatureF,Dew PointF,Humidity,Sea Level PressureIn,VisibilityMPH,Wind Direction,Wind SpeedMPH,Gust SpeedMPH,PrecipitationIn,Events,Conditions,WindDirDegrees,DateUTC
12:15 AM,19.4,15.8,86,30.17,10.0,East,6.9,-,N/A,,Overcast,90,2012-11-30 06:15:00
12:35 AM,19.4,15.8,86,30.17,10.0,East,4.6,-,N/A,,Overcast,80,2012-11-30 06:35:00
12:55 AM,19.4,15.8,86,30.17,10.0,East,3.5,-,N/A,,Overcast,90,2012-11-30 06:55:00
1:15 AM,19.4,15.8,86,30.17,10.0,East,4.6,-,N/A,,Overcast,90,2012-11-30 07:15:00
1:35 AM,19.4,15.8,86,30.15,10.0,ESE,8.1,-,N/A,,Overcast,110,2012-11-30 07:35:00
1:55 AM,19.4,15.8,86,30.14,10.0,East,5.8,-,N/A,,Overcast,100,2012-11-30 07:55:00
2:15 AM,19.4,17.6,93,30.14,10.0,ESE,6.9,-,N/A,,Overcast,110,2012-11-30 08:15:00
2:35 AM,19.4,17.6,93,30.14,10.0,ESE,6.9,-,N/A,,Overcast,110,2012-11-30 08:35:00
2:55 AM,19.4,17.6,93,30.15,10.0,Calm,Calm,-,N/A,,Overcast,0,2012-11-30 08:55:00
3:15 AM,19.4,17.6,93,30.16,10.0,Calm,Calm,-,N/A,,Overcast,0,2012-11-30 09:15:00
3:19 AM,19.4,17.6,93,30.16,10.0,East,4.6,-,N/A,,Overcast,100,2012-11-30 09:19:00
3:55 AM,19.4,17.6,93,30.15,10.0,ESE,4.6,-,N/A,,Overcast,120,2012-11-30 09:55:00
4:15 AM,19.4,17.6,93,30.15,10.0,ESE,3.5,-,N/A,,Overcast,110,2012-11-30 10:15:00
4:35 AM,19.4,17.6,93,30.14,10.0,ESE,6.9,-,N/A,,Overcast,120,2012-11-30 10:35:00
4:41 AM,19.4,17.6,93,30.14,10.0,East,3.5,-,N/A,,Overcast,100,2012-11-30 10:41:00
5:01 AM,19.4,17.6,93,30.14,10.0,ESE,3.5,-,N/A,,Overcast,110,2012-11-30 11:01:00
5:21 AM,21.2,17.6,86,30.14,10.0,Calm,Calm,-,N/A,,Overcast,100,2012-11-30 11:21:00
5:41 AM,21.2,17.6,86,30.15,10.0,Calm,Calm,-,N/A,,Overcast,120,2012-11-30 11:41:00
6:01 AM,21.2,19.4,93,30.14,10.0,Calm,Calm,-,N/A,,Overcast,100,2012-11-30 12:01:00
6:22 AM,21.2,19.4,93,30.13,7.0,Calm,Calm,-,N/A,,Overcast,0,2012-11-30 12:22:00
6:23 AM,21.2,19.4,93,30.13,7.0,Calm,Calm,-,N/A,,Overcast,0,2012-11-30 12:23:00
6:55 AM,21.2,19.4,93,30.13,10.0,Calm,Calm,-,N/A,,Overcast,0,2012-11-30 12:55:00
7:01 AM,21.2,19.4,93,30.12,10.0,ESE,3.5,-,N/A,,Overcast,120,2012-11-30 13:01:00
7:35 AM,21.2,19.4,93,30.12,7.0,SE,3.5,-,N/A,,Overcast,130,2012-11-30 13:35:00
7:55 AM,21.2,19.4,93,30.13,7.0,Calm,Calm,-,N/A,,Overcast,0,2012-11-30 13:55:00
8:15 AM,21.2,19.4,93,30.13,7.0,Calm,Calm,-,N/A,,Overcast,0,2012-11-30 14:15:00
8:35 AM,23.0,21.2,93,30.12,7.0,SSE,6.9,-,N/A,,Overcast,150,2012-11-30 14:35:00
8:55 AM,23.0,21.2,93,30.14,7.0,South,5.8,-,N/A,,Overcast,190,2012-11-30 14:55:00
9:15 AM,23.0,21.2,93,30.13,7.0,SSE,3.5,-,N/A,,Overcast,160,2012-11-30 15:15:00
9:35 AM,24.8,21.2,86,30.14,7.0,SSE,8.1,-,N/A,,Overcast,160,2012-11-30 15:35:00
9:55 AM,24.8,21.2,86,30.15,7.0,South,6.9,-,N/A,,Overcast,180,2012-11-30 15:55:00
10:15 AM,24.8,21.2,86,30.14,7.0,SSE,8.1,-,N/A,,Overcast,150,2012-11-30 16:15:00
10:35 AM,24.8,21.2,86,30.13,7.0,SSE,5.8,-,N/A,,Overcast,150,2012-11-30 16:35:00
10:55 AM,24.8,21.2,86,30.12,5.0,SSE,8.1,-,N/A,,Overcast,150,2012-11-30 16:55:00
11:15 AM,24.8,21.2,86,30.11,5.0,SSE,8.1,-,N/A,,Overcast,150,2012-11-30 17:15:00
11:35 AM,26.6,21.2,80,30.09,5.0,SSE,6.9,-,N/A,,Overcast,150,2012-11-30 17:35:00
11:55 AM,26.6,21.2,80,30.09,5.0,SSE,9.2,-,N/A,,Overcast,160,2012-11-30 17:55:00
12:15 PM,26.6,23.0,86,30.09,5.0,South,8.1,-,N/A,,Overcast,170,2012-11-30 18:15:00
12:36 PM,26.6,23.0,86,30.10,5.0,South,5.8,-,N/A,,Overcast,190,2012-11-30 18:36:00
12:55 PM,26.6,23.0,86,30.09,5.0,South,10.4,-,N/A,,Overcast,170,2012-11-30 18:55:00
1:15 PM,26.6,23.0,86,30.08,5.0,SSE,11.5,-,N/A,,Overcast,160,2012-11-30 19:15:00
1:35 PM,26.6,24.8,93,30.07,5.0,South,12.7,-,N/A,,Overcast,170,2012-11-30 19:35:00
1:55 PM,26.6,24.8,93,30.07,5.0,South,10.4,-,N/A,,Overcast,170,2012-11-30 19:55:00
2:16 PM,26.6,24.8,93,30.07,4.0,SSE,9.2,-,N/A,,Overcast,160,2012-11-30 20:16:00
2:35 PM,26.6,24.8,93,30.06,5.0,SSE,9.2,-,N/A,,Overcast,160,2012-11-30 20:35:00
2:55 PM,26.6,24.8,93,30.04,4.0,SSE,8.1,-,N/A,,Overcast,150,2012-11-30 20:55:00
3:16 PM,26.6,24.8,93,30.02,4.0,SSE,10.4,-,N/A,,Overcast,150,2012-11-30 21:16:00
3:35 PM,26.6,24.8,93,30.01,4.0,SSE,10.4,16.1,N/A,,Overcast,150,2012-11-30 21:35:00
3:55 PM,26.6,24.8,93,30.01,4.0,SE,9.2,-,N/A,,Overcast,130,2012-11-30 21:55:00
4:16 PM,26.6,24.8,93,30.01,4.0,SE,10.4,-,N/A,,Overcast,130,2012-11-30 22:16:00
4:35 PM,26.6,24.8,93,30.00,5.0,SE,6.9,-,N/A,,Overcast,140,2012-11-30 22:35:00
4:55 PM,26.6,24.8,93,30.00,4.0,SE,8.1,-,N/A,,Overcast,140,2012-11-30 22:55:00
5:16 PM,26.6,24.8,93,29.98,4.0,SE,8.1,-,N/A,,Overcast,140,2012-11-30 23:16:00
5:35 PM,26.6,24.8,93,29.97,4.0,SE,8.1,-,N/A,,Overcast,140,2012-11-30 23:35:00
5:55 PM,26.6,24.8,93,29.97,4.0,SE,6.9,-,N/A,,Overcast,140,2012-11-30 23:55:00
6:16 PM,26.6,24.8,93,29.96,4.0,SE,8.1,-,N/A,,Overcast,130,2012-12-01 00:16:00
6:35 PM,26.6,24.8,93,29.96,4.0,SE,9.2,-,N/A,,Overcast,140,2012-12-01 00:35:00
6:55 PM,26.6,24.8,93,29.95,4.0,SE,8.1,-,N/A,,Overcast,140,2012-12-01 00:55:00
7:16 PM,26.6,24.8,93,29.94,4.0,SE,10.4,16.1,N/A,,Overcast,140,2012-12-01 01:16:00
7:35 PM,28.4,24.8,86,29.93,4.0,SE,9.2,-,N/A,,Overcast,130,2012-12-01 01:35:00
7:55 PM,28.4,26.6,93,29.93,3.0,SE,9.2,-,N/A,,Overcast,140,2012-12-01 01:55:00
8:16 PM,28.4,26.6,93,29.93,3.0,SSE,12.7,18.4,N/A,,Overcast,150,2012-12-01 02:16:00
8:35 PM,28.4,26.6,93,29.92,4.0,SSE,10.4,-,N/A,,Overcast,150,2012-12-01 02:35:00
8:55 PM,28.4,26.6,93,29.90,3.0,SSE,11.5,-,N/A,,Overcast,150,2012-12-01 02:55:00
9:16 PM,28.4,26.6,93,29.90,4.0,SSE,9.2,-,N/A,,Overcast,150,2012-12-01 03:16:00
9:35 PM,28.4,26.6,93,29.91,4.0,SSE,8.1,-,N/A,,Overcast,160,2012-12-01 03:35:00
9:55 PM,28.4,26.6,93,29.91,4.0,SSE,9.2,-,N/A,,Overcast,150,2012-12-01 03:55:00
10:16 PM,28.4,26.6,93,29.91,5.0,SSE,9.2,-,N/A,,Overcast,150,2012-12-01 04:16:00
10:35 PM,28.4,26.6,93,29.90,4.0,SSE,11.5,17.3,N/A,,Overcast,160,2012-12-01 04:35:00
11:16 PM,30.2,26.6,86,29.88,4.0,SE,12.7,19.6,N/A,,Overcast,140,2012-12-01 05:16:00
11:35 PM,30.2,26.6,86,29.86,3.0,SE,13.8,18.4,N/A,,Overcast,140,2012-12-01 05:35:00